Location: ?
(35.4064°N, 139.3593°E)
Time: 04:05:03
(UTC+00:00)

Cosmos 1624 Rocket - Pass Details

Date: 18 April 2024
Orbit: 755 x 781 km, 74.0° (Epoch: 23 May)

Event Time Altitude Azimuth Distance (km) Brightness Sun altitude
Rises 18:27:34 0° 335° (NNW) 3,228 7.3 -19.2°
Reaches altitude 10° 18:30:02 10° 330° (NNW) 2,295 6.5 -18.8°
Maximum altitude 18:34:59 46° 258° (WSW) 1,010 4.2 -17.9°
Drops below altitude 10° 18:39:53 10° 186° (S) 2,273 6.1 -17.0°
Enters shadow 18:40:40 - 183° (S) 2,566 6.4 -16.9°
